Вернуться в каталог

STARLINK-35603

АктивенСвязьVLEO
NORAD 66141·PAYLOAD·🇺🇸 United States

Запущен Oct 22, 2025 с Vandenberg Space Force Base

Loading…

Ближайшие Пролёты (ближайшие 24 часа)

TLE

СвежийSource: CelesTrak SupGP

Эпоха: Sep 14, 2026, 14:37 UTC

1 66141C 25237AD  26257.60951389 -.00028102  00000+0 -83054-3 0  2574
2 66141  53.1568 239.2032 0001404  87.8065 355.2927 15.34394673    11

Отслеживайте STARLINK-35603 в реальном времени с AllMySat

Download on the App Store